Hourly Weather Roundup
Issued by NWS Central Illinois

Home | Current Version | Previous Version | Text Only | Print | Product List | Glossary On
Versions: 1 2 3 4 5 6 7 8 9 10 11 12 13 14 15 16 17 18 19 20 21 22 23 24 25 26 27 28 29 30 31 32 33 34 35 36 37 38 39 40 41 42 43 44 45 46 47 48 49 50
000
NZUS43 KILX 291110
HWRILX

AREA WEATHER ROUNDUP
NATIONAL WEATHER SERVICE, LINCOLN IL
600 AM CDT FRI APR 29 2016


CITY           SKY/WX    TMP DP  RH WIND       PRES   REMARKS
BLOOMINGTON    FOG       50  50 100 N8        30.07R VSB 1/4
CHAMPAIGN      CLEAR     46  45  96 SW5       30.05R
DANVILLE       FOG       45  44  99 W3        30.02R VSB<1/4
DECATUR        PTCLDY    51  47  86 W5        30.06R
EFFINGHAM      CLEAR     49  49 100 CALM      30.07S
FLORA          CLOUDY    53  50  89 CALM      30.06S
GALESBURG      FOG       46  46  97 N13       30.07F VSB 1
JACKSONVILLE   MOCLDY    48  46  91 W6        30.06S
LACON          CLOUDY    46  44  92 N8        30.08R FOG
LAWRENCEVILLE  CLOUDY    51  50  96 CALM      30.07R
LITCHFIELD     PTCLDY    49  46  90 W5        30.06S
$$


CITY           SKY/WX    TMP DP  RH WIND       PRES   REMARKS
LINCOLN        PTCLDY    51  49  92 CALM      30.06R
MACOMB         CLOUDY    49  49  97 N8        30.08F
MATTOON        NOT AVBL
MT CARMEL AP   NOT AVBL
OLNEY-NOBLE AP CLOUDY    50  50 100 CALM      30.06S
PARIS          CLOUDY    47  47  99 CALM      30.06R
PEORIA         CLOUDY    50  47  89 N6        30.07R FOG
PONTIAC        CLOUDY    48  48  99 NW7       30.07R FOG
RANTOUL        PTCLDY    48  47  97 NW6       30.06R FOG
ROBINSON       CLOUDY    46  46 100 CALM      30.07R
SPRINGFIELD    CLEAR     49  46  90 NW5       30.05F
TAYLORVILLE    CLEAR     46  46 100 CALM      30.05F
$$

...REGIONAL REPORTS...


CITY           SKY/WX    TMP DP  RH WIND       PRES   REMARKS
CHICAGO O`HARE CLOUDY    42  41  96 N7        30.04R FOG
KANKAKEE       CLOUDY    46  43  89 NW6       30.06R FOG
MOLINE         CLOUDY    46  42  86 NW7       30.10R FOG
MOUNT STERLING CLOUDY    47  46  96 NW3       30.06F
MOUNT VERNON   CLOUDY    48  45  87 CALM      30.05F
PITTSFIELD     CLOUDY    50  47  92 NW8       30.07F
QUINCY         CLOUDY    50  47  89 N7        30.06F
ROCKFORD       CLOUDY    42  39  89 N8        30.10R
$$


CITY           SKY/WX    TMP DP  RH WIND       PRES   REMARKS
BURLINGTON     CLOUDY    48  47  96 N9        30.06F FOG
CEDAR RAPIDS   CLOUDY    43  43 100 NW3       30.10S
DES MOINES     CLOUDY    47  42  83 N9        30.10S
KIRKSVILLE     CLOUDY    47  44  90 N12       30.03F
OTTUMWA        CLOUDY    47  45  93 NE8       30.08F
ST LOUIS       CLOUDY    54  49  83 N6        30.05F
$$


CITY           SKY/WX    TMP DP  RH WIND       PRES   REMARKS
TERRE HAUTE    CLOUDY    47  45  93 CALM      30.05R
EVANSVILLE     CLOUDY    53  50  89 CALM      30.06R
INDIANAPOLIS   CLOUDY    49  46  90 W6        30.01R
LAFAYETTE      FOG       46  45  96 W3        30.02S VSB 1/4
MADISON        CLOUDY    39  36  89 N6        30.09R WCI  35
MILWAUKEE      CLOUDY    40  37  89 N7        30.07R
$$






USA.gov is the U.S. government's official web portal to all federal, state and local government web resources and services.